Terminal Aerodrome Forecast
Issued by NWS

Home | Current Version | Previous Version | Text Only | Print | Product List | Glossary On
Versions: 1 2 3 4 5 6 7 8 9 10 11 12 13 14 15 16
081
FTUS42 KMHX 252337
TAFOAJ
TAF
KOAJ 252337Z 2600/2624 02008KT P6SM OVC020
     FM260400 02009KT P6SM OVC008
     FM261400 36011G19KT P6SM OVC015
     FM261800 36014G22KT P6SM VCSH BKN025
      AMD LTD TO CLD VIS AND WIND=

USA.gov is the U.S. government's official web portal to all federal, state and local government web resources and services.